Zurück zum Katalog

STARLINK-37675

AktivKommunikationVLEO
NORAD 100299·PAYLOAD·🇺🇸 United States

Gestartet Aug 11, 2026 von Cape Canaveral Space Force Station

Loading…

Nächste Überflüge (nächste 24 Stunden)

TLE

VeraltetSource: Space-Track

Epoche: Sep 8, 2026, 15:43 UTC

1 A0299U 26183AD  26251.65520066 -.01023326  00000-0 -69549-2 0  9990
2 A0299  53.1590 315.0048 0000472  21.8641 338.2400 15.76609701  4456

Verfolge STARLINK-37675 in Echtzeit mit AllMySat

Download on the App Store